Regional Weather Roundup
Issued by NWS

Home | Current Version | Previous Version | Text Only | Print | Product List | Glossary Off
Versions: 1 2 3 4 5 6 7 8 9 10 11 12 13 14 15 16 17 18 19 20 21 22 23 24 25 26 27 28 29 30 31 32 33 34 35 36 37 38 39 40 41 42 43 44 45 46 47 48 49 50

000
ASUS45 KBOU 300107
RWRCO

WEATHER ROUNDUP FOR COLORADO
NATIONAL WEATHER SERVICE DENVER/BOULDER CO
700 PM MDT SAT APR 29 2017

NOTE: "FAIR" INDICATES FEW OR NO CLOUDS BELOW 12000 FEET WITH NO
SIGNIFICANT WEATHER AND/OR OBSTRUCTIONS TO VISIBILITY.

COZ001>005-013-030-031-300200-
...NORTHWEST COLORADO...

CITY           SKY/WX    TMP DP  RH WIND       PRES   REMARKS
CRAIG          PTSUNNY   44  20  38 N18G26    30.09R
HAYDEN         PTSUNNY   41  18  38 CALM      30.08S
MEEKER         CLOUDY    42  23  46 N18       30.09R
MOUNT WERNER   NOT AVBL
STEAMBOAT SPGS CLOUDY    37  22  54 NE10      30.08S
WALDEN           N/A     30  16  55 N10       30.14R WCI  21
$$

COZ006>008-011-300200-
...WEST CENTRAL VALLEYS...

CITY           SKY/WX    TMP DP  RH WIND       PRES   REMARKS
GRAND JUNCTION CLOUDY    51  20  29 N16       30.05R
MONTROSE       CLOUDY    48  26  42 NW16G24   30.04R
EAGLE          PTSUNNY   37  21  52 E10       30.12R
RIFLE          CLOUDY    45  25  45 E12       30.07R
DELTA          FAIR      53  21  29 NW15      30.03R
NUCLA          FAIR      45  19  36 N20G25    30.07R
$$

COZ017>023-064>068-300200-
...SOUTHWEST COLORADO...

CITY           SKY/WX    TMP DP  RH WIND       PRES   REMARKS
DURANGO        PTSUNNY   37  33  85 SE9       29.96F
CORTEZ         FAIR      46  22  38 N13       29.99R
PAGOSA SPRINGS MOCLDY    40  24  51 CALM      29.96R
TELLURIDE      LGT SNOW  31  23  71 NW7       30.05R WCI  25
WOLF CREEK PAS LGT SNOW  14  14 100 N10G17    30.04R VSB 3/4 WCI   1
$$

COZ009-010-012-014-032>034-037-058>063-300200-
...CENTRAL COLORADO...

CITY           SKY/WX    TMP DP  RH WIND       PRES   REMARKS
ASPEN          CLOUDY    35  20  54 NW8       30.06R WCI  29
BUENA VISTA    LGT SNOW  30  25  83 CALM      30.06S
COPPER MTN     LGT SNOW  19  14  79 MISG      30.06R
BERTHOUD PASS  SNOW      10   0  61 N5        30.07R VSB<1/4 WCI   2
COTTONWOOD PAS LGT SNOW  27  23  86 CALM      30.05S
GUNNISON       FAIR      37  19  48 N8        30.01R
KREMMLING      CLOUDY    37  28  70 SW6       30.12R
LEADVILLE      LGT SNOW  22  19  89 NW7       30.04S VSB 1   WCI  13
MONARCH PASS   CLOUDY    16  12  86 NE23      30.10R WCI  -2
SALIDA         CLOUDY    31  28  90 SW3       30.14S
SUNLIGHT       LGT SNOW  19  18  93 NE7       30.13R VSB 3/4 WCI  10
WILKERSON PASS CLOUDY   N/A N/A N/A NE13      30.05F FOG
$$

COZ069>075-300200-
...SAN LUIS VALLEY/SANGRE DE CRISTO MOUNTAINS...

CITY           SKY/WX    TMP DP  RH WIND       PRES   REMARKS
ALAMOSA        CLOUDY    27  25  92 NE10      30.01R FOG     WCI  17
LA VETA PASS   SNOW      16  12  86 N13G23    30.11S VSB 1/2 WCI   2
SAGUACHE       CLOUDY    34  16  47 N16       30.01R WCI  23
$$

COZ035-036-038>040-300200-
...NORTHERN COLORADO FRONT RANGE...

CITY           SKY/WX    TMP DP  RH WIND       PRES   REMARKS
DENVER INTL AP FLURRIES  31  25  78 NW16      30.19R WCI  20
DMNS CITY PARK   N/A     31  29  92 N6G13     30.21R WCI  25
AURORA         LGT SNOW  28  28  99 N16       30.20R FOG     WCI  16
FRONT RANGE AP LGT SNOW  32  30  93 NW12      30.19R WCI  23
ERIE MUNI ARPT CLOUDY    33  27  79 N9        30.22R WCI  26
BOULDER MUN AP LGT SNOW  32  28  86 N3        30.22R
CENTENNIAL     LGT SNOW  28  27  96 N16       30.18R VSB 1   WCI  16
BROOMFIELD     LGT SNOW  30  28  93 N10       30.21R WCI  21
FORT COLLINS   FAIR      33  25  72 N14       30.22R WCI  23
LONGMONT       CLOUDY    36  26  65 N14       30.24R HAZE
$$

COZ041-046-047-076>085-087-088-300200-
...PIKES PEAK/PALMER DIVIDE AND SOUTHERN FOOTHILLS...

CITY           SKY/WX    TMP DP  RH WIND       PRES   REMARKS
COLO. SPRINGS  CLOUDY    30  22  72 N25G37    30.08F WCI  16
A. F. ACADEMY  MIX PCPN  26  22  86 N23G33    30.08F FOG     WCI  11
SCHRIEVER AFB  MOCLDY    28  23  80 N26G38    30.07S WCI  13
ELLICOTT       LGT RAIN N/A N/A N/A N32G41    30.04S
FALCON         LGT SNOW  26  21  82 N23G36    30.07F WCI  11
FORT CARSON    NOT AVBL
LIMON          LGT SNOW  30  28  92 N23G36    30.10S FOG     WCI  17
MONUMENT HILL  LGT SNOW  23  21  93 N23G30    30.13F VSB 1   WCI   7
TRINIDAD       LGT SNOW  28  24  85 N17       30.08F VSB 1   WCI  16
$$

COZ042>045-048>051-090-091-300200-
...NORTHEAST COLORADO...

CITY           SKY/WX    TMP DP  RH WIND       PRES   REMARKS
GREELEY ARPT   NOT AVBL
AKRON          CLOUDY    37  24  59 N20       30.12R
BURLINGTON     NOT AVBL
WRAY           NOT AVBL
STERLING       NOT AVBL
HOLYOKE        FAIR      45  21  39 NE17G28   30.10R
FORT MORGAN    CLOUDY    37  25  61 N18G26    30.17S
$$

COZ086-089-092>099-300200-
...SOUTHEAST COLORADO...

CITY           SKY/WX    TMP DP  RH WIND       PRES   REMARKS
PUEBLO         CLOUDY    35  26  69 N12       30.12R WCI  27
LA JUNTA       LGT SNOW  34  31  88 N25       30.08S FOG     WCI  21
LAMAR          LGT SNOW  34  31  88 N20       30.00F FOG     WCI  23
SPRINGFIELD      N/A     31  31 100 N35G44    29.94F WCI  15
$$



USA.gov is the U.S. government's official web portal to all federal, state and local government web resources and services.